SAS105 ESSA-ESGG

Flight info

Callsign SAS105
Flight time N/A
Altitude 38000
Route NOSL6G NOSLI N850 ABAMA DCT NEMBA N33 ETPIG P605 EKRAL
Aircraft A20N/M-SDE2E3FGHIRWXY/LB1

Departure

Time N/A
Airport Stockholm-Arlanda Airport (ESSA)

Arrival

Time 2026-05-04 19:43
Airport Göteborg Landvetter Airport (ESGG)
Time Latitude Longitude Altitude Speed Heading
2026-05-04 19:16 57.46936 15.51690 37835 ft 425 kts 212°
2026-05-04 19:16 57.44456 15.48732 37843 ft 417 kts 224°
2026-05-04 19:17 57.42461 15.44930 37725 ft 409 kts 236°
2026-05-04 19:17 57.41011 15.40467 37259 ft 404 kts 248°
2026-05-04 19:17 57.39968 15.35594 36463 ft 406 kts 251°
2026-05-04 19:17 57.38965 15.30629 35623 ft 409 kts 251°
2026-05-04 19:18 57.37968 15.25708 34920 ft 410 kts 251°
2026-05-04 19:18 57.36951 15.20736 34242 ft 409 kts 251°
2026-05-04 19:18 57.35947 15.15849 33530 ft 409 kts 251°
2026-05-04 19:18 57.35260 15.12511 32874 ft 407 kts 251°
2026-05-04 19:19 57.33930 15.06010 31249 ft 409 kts 251°
2026-05-04 19:19 57.33257 15.02693 30410 ft 411 kts 251°
2026-05-04 19:19 57.31931 14.96106 28522 ft 415 kts 251°
2026-05-04 19:19 57.31258 14.92773 27523 ft 417 kts 251°
2026-05-04 19:20 57.30245 14.87776 26595 ft 409 kts 251°
2026-05-04 19:20 57.29261 14.82970 26292 ft 388 kts 251°
2026-05-04 19:20 57.28305 14.78337 25401 ft 381 kts 251°
2026-05-04 19:20 57.27352 14.73743 23838 ft 392 kts 251°
2026-05-04 19:21 57.26344 14.68893 21754 ft 409 kts 251°
2026-05-04 19:21 57.25329 14.63949 20247 ft 412 kts 251°
2026-05-04 19:21 57.24333 14.59043 19103 ft 406 kts 251°
2026-05-04 19:21 57.23343 14.54141 17951 ft 399 kts 251°
2026-05-04 19:22 57.22385 14.49387 16832 ft 391 kts 251°
2026-05-04 19:22 57.21456 14.44812 16232 ft 372 kts 251°
2026-05-04 19:22 57.20574 14.40505 15992 ft 351 kts 251°
2026-05-04 19:22 57.19721 14.36364 15855 ft 334 kts 251°
2026-05-04 19:23 57.18915 14.32460 15870 ft 324 kts 251°
2026-05-04 19:23 57.18111 14.28574 15869 ft 329 kts 251°
2026-05-04 19:23 57.17290 14.24615 15865 ft 328 kts 251°
2026-05-04 19:23 57.16472 14.20678 15866 ft 328 kts 251°
2026-05-04 19:24 57.15659 14.16759 15865 ft 328 kts 251°
2026-05-04 19:24 57.14884 14.12817 15848 ft 327 kts 257°
2026-05-04 19:24 57.14767 14.08639 15849 ft 327 kts 278°
2026-05-04 19:24 57.15517 14.04725 15660 ft 330 kts 297°
2026-05-04 19:25 57.16922 14.01336 15258 ft 331 kts 306°
2026-05-04 19:25 57.18386 13.98116 14760 ft 329 kts 306°
2026-05-04 19:25 57.19870 13.94868 14250 ft 327 kts 306°
2026-05-04 19:25 57.21324 13.91692 13774 ft 324 kts 306°
2026-05-04 19:26 57.22775 13.88522 13227 ft 321 kts 306°
2026-05-04 19:26 57.24204 13.85392 12676 ft 319 kts 306°
2026-05-04 19:26 57.25653 13.82194 11777 ft 326 kts 306°
2026-05-04 19:26 57.27119 13.78908 10792 ft 336 kts 306°
2026-05-04 19:27 57.28570 13.75618 10270 ft 332 kts 306°
2026-05-04 19:27 57.30016 13.72335 10009 ft 320 kts 306°
2026-05-04 19:27 57.31399 13.69206 9881 ft 305 kts 306°
2026-05-04 19:27 57.32733 13.66194 9874 ft 306 kts 306°
2026-05-04 19:28 57.34093 13.63123 9876 ft 306 kts 306°
2026-05-04 19:28 57.35411 13.60162 9878 ft 290 kts 306°
2026-05-04 19:28 57.36661 13.57379 9873 ft 275 kts 306°
2026-05-04 19:28 57.37851 13.54761 9874 ft 259 kts 305°
2026-05-04 19:29 57.39025 13.52192 9879 ft 270 kts 306°
2026-05-04 19:29 57.40312 13.49327 9879 ft 301 kts 306°
2026-05-04 19:29 57.41656 13.46307 9884 ft 305 kts 306°
2026-05-04 19:29 57.43009 13.43264 9881 ft 305 kts 306°
2026-05-04 19:30 57.44368 13.40205 9879 ft 305 kts 306°
2026-05-04 19:30 57.45712 13.37176 9882 ft 305 kts 305°
2026-05-04 19:30 57.47052 13.34154 9882 ft 305 kts 305°
2026-05-04 19:30 57.48405 13.31101 9884 ft 303 kts 305°
2026-05-04 19:31 57.49762 13.28041 9881 ft 304 kts 305°
2026-05-04 19:31 57.51105 13.25013 9880 ft 304 kts 305°
2026-05-04 19:31 57.52421 13.22056 9880 ft 289 kts 305°
2026-05-04 19:31 57.53675 13.19267 9878 ft 273 kts 305°
2026-05-04 19:32 57.54874 13.16627 9883 ft 258 kts 305°
2026-05-04 19:32 57.56041 13.14066 9887 ft 272 kts 305°
2026-05-04 19:32 57.57328 13.11195 9878 ft 301 kts 305°
2026-05-04 19:32 57.58674 13.08176 9878 ft 304 kts 305°
2026-05-04 19:33 57.60011 13.05186 9880 ft 298 kts 305°
2026-05-04 19:33 57.61348 13.02200 9884 ft 303 kts 305°
2026-05-04 19:33 57.62688 12.99203 9865 ft 297 kts 305°
2026-05-04 19:33 57.64008 12.96270 9725 ft 285 kts 305°
2026-05-04 19:34 57.65248 12.93534 9606 ft 272 kts 305°
2026-05-04 19:34 57.66449 12.90899 9476 ft 259 kts 305°
2026-05-04 19:34 57.66450 12.90895 9476 ft 259 kts 305°
2026-05-04 19:34 57.67526 12.88545 9158 ft 255 kts 305°
2026-05-04 19:35 57.68684 12.86008 8747 ft 254 kts 305°
2026-05-04 19:35 57.69820 12.83504 8351 ft 252 kts 305°
2026-05-04 19:35 57.70943 12.81007 7977 ft 250 kts 305°
2026-05-04 19:35 57.72060 12.78485 7586 ft 248 kts 303°
2026-05-04 19:36 57.72964 12.75821 7190 ft 245 kts 296°
2026-05-04 19:36 57.73785 12.72973 6800 ft 245 kts 295°
2026-05-04 19:36 57.74575 12.70189 6444 ft 243 kts 295°
2026-05-04 19:36 57.75376 12.67343 6063 ft 243 kts 295°
2026-05-04 19:37 57.76158 12.64556 5706 ft 241 kts 295°
2026-05-04 19:37 57.76933 12.61788 5343 ft 240 kts 295°
2026-05-04 19:37 57.77708 12.59012 4954 ft 240 kts 295°
2026-05-04 19:37 57.78488 12.56226 4575 ft 238 kts 295°
2026-05-04 19:38 57.79260 12.53475 4213 ft 237 kts 295°
2026-05-04 19:38 57.80020 12.50762 3836 ft 235 kts 295°
2026-05-04 19:38 57.80775 12.48054 3432 ft 235 kts 295°
2026-05-04 19:38 57.81497 12.45294 3084 ft 232 kts 286°
2026-05-04 19:39 57.81560 12.42369 2981 ft 225 kts 254°
2026-05-04 19:39 57.80649 12.40105 2990 ft 219 kts 216°
2026-05-04 19:39 57.79249 12.39219 2982 ft 208 kts 201°
2026-05-04 19:39 57.77925 12.38475 2961 ft 190 kts 207°
2026-05-04 19:40 57.76716 12.37530 2636 ft 184 kts 212°
2026-05-04 19:40 57.75606 12.36492 2352 ft 176 kts 214°
2026-05-04 19:40 57.74516 12.35504 2116 ft 169 kts 214°
2026-05-04 19:40 57.73494 12.34560 1898 ft 162 kts 214°
2026-05-04 19:41 57.72492 12.33648 1682 ft 153 kts 214°
2026-05-04 19:41 57.71602 12.32841 1470 ft 133 kts 213°
2026-05-04 19:41 57.70809 12.32113 1281 ft 124 kts 212°
2026-05-04 19:41 57.70026 12.31395 1104 ft 126 kts 211°
2026-05-04 19:42 57.69243 12.30680 923 ft 124 kts 210°
2026-05-04 19:42 57.68473 12.29977 751 ft 124 kts 211°
2026-05-04 19:42 57.67693 12.29264 586 ft 124 kts 210°
2026-05-04 19:42 57.66937 12.28566 517 ft 106 kts 205°
2026-05-04 19:43 57.66456 12.28130 518 ft 49 kts 205°
2026-05-04 19:43 57.66277 12.27976 512 ft 27 kts 205°
2026-05-04 19:43 57.66139 12.27970 512 ft 15 kts 136°
2026-05-04 19:43 57.66110 12.28074 510 ft 0 kts 111°
2026-05-04 19:44 57.66107 12.28099 510 ft 7 kts 98°
2026-05-04 19:45 57.66152 12.28212 511 ft 13 kts 25°
2026-05-04 19:45 57.66245 12.28290 513 ft 17 kts 25°
2026-05-04 19:45 57.66360 12.28393 515 ft 19 kts 25°
2026-05-04 19:45 57.66495 12.28519 513 ft 25 kts 26°
2026-05-04 19:46 57.66665 12.28673 511 ft 29 kts 26°
2026-05-04 19:46 57.66804 12.28799 514 ft 0 kts 26°
2026-05-04 19:46 57.66815 12.28810 514 ft 3 kts 33°
2026-05-04 19:46 57.66829 12.28877 514 ft 10 kts 85°
2026-05-04 19:47 57.66797 12.29015 515 ft 14 kts 117°
2026-05-04 19:47 57.66747 12.29201 515 ft 14 kts 116°
2026-05-04 19:47 57.66733 12.29255 516 ft 3 kts 116°
2026-05-04 19:47 57.66730 12.29267 516 ft 0 kts 116°